Regional Weather Roundup
Issued by NWS

Home | Current Version | Previous Version | Text Only | Print | Product List | Glossary On
Versions: 1 2 3 4 5 6 7 8 9 10 11 12 13 14 15 16 17 18 19 20 21 22 23 24 25 26 27 28 29 30 31 32 33 34 35 36 37 38 39 40 41 42 43 44 45 46 47 48 49 50
000
ASUS43 KMPX 251210
RWRMN
WEATHER ROUNDUP FOR MINNESOTA
NATIONAL WEATHER SERVICE TWIN CITIES/CHANHASSEN MN
600 AM CST THU DEC 25 2014


NOTE: "FAIR" INDICATES FEW OR NO CLOUDS BELOW 12,000 FEET WITH NO
SIGNIFICANT WEATHER AND/OR OBSTRUCTIONS TO VISIBILITY. N/A MEANS
CURRENT SKY AND/OR WEATHER CONDITIONS ARE NOT AVAILABLE.

MNZ060>063-068>070-251300-
   Twin Cities Metro

CITY           SKY/WX    TMP DP  RH WIND       PRES   REMARKS
TWIN CITIES    CLOUDY    30  25  81 S9        29.65R WCI  22
6HR MIN TEMP:  30; 6HR MAX TEMP:  32;

ST PAUL        CLOUDY    30  26  85 S8        29.66R WCI  22
CRYSTAL        CLOUDY    31  26  82 S8        29.63R WCI  23
BLAINE         CLOUDY    32  30  93 S12       29.63R WCI  23
LAKEVILLE      CLOUDY    28  27  93 S8        29.65R WCI  20
EDEN PRAIRIE   CLOUDY    30  26  85 S9        29.64R WCI  22
6HR MIN TEMP:  29; 6HR MAX TEMP:  32;

SOUTH ST PAUL  CLOUDY    31  28  87 S10       29.66R WCI  22
LAKE ELMO      CLOUDY    32  28  86 S12       29.65R WCI  23
$$
MNZ001>005-007-008-013>017-022>024-027-028-251300-
   Northwest Minnesota

CITY           SKY/WX    TMP DP  RH WIND       PRES   REMARKS
BEMIDJI        CLOUDY    29  28  93 W10       29.51R FOG     WCI  20
HALLOCK        CLOUDY    30  27  86 W8        29.53R WCI  23
ROSEAU         CLOUDY    30  25  80 W6        29.49R WCI  24
WARROAD        CLOUDY    28  25  86 W6        29.49R WCI  22
THIEF RVR FALL CLOUDY    28  25  86 NW8       29.54R WCI  20
CROOKSTON      CLOUDY    28  27  93 W6        29.57R WCI  22
FOSSTON        CLOUDY    25  25 100 W10       29.55R FOG     WCI  15
DETROIT LAKES  CLOUDY    30  30 100 W7        29.56R WCI  23
MOORHEAD       CLOUDY    28  28 100 NW9       29.59R WCI  20
PARK RAPIDS    CLOUDY    30  28  92 SW10      29.53R WCI  21
MAHNOMEN       CLOUDY    27  26  97 W8        29.55R FOG     WCI  19
$$
MNZ006-009>011-018-025>026-251300-
   North Central Minnesota

CITY           SKY/WX    TMP DP  RH WIND       PRES   REMARKS
BAUDETTE       CLOUDY    29  27  92 SW6       29.47R WCI  23
FLAG ISLAND    CLOUDY    28  27  93 SW6       29.46R WCI  22
INTL FALLS     CLOUDY    30  27  88 W7        29.48R WCI  23
6HR MIN TEMP:  28; 6HR MAX TEMP:  30;

WASKISH        CLOUDY    30  28  93 SW5       29.50R WCI  25
BIG FORK       CLOUDY    30  27  86 SW8       29.51R WCI  23
LONGVILLE      CLOUDY    28  27  93 SW7       29.54R WCI  21
GRAND RAPIDS   CLOUDY    30  27  86 SW7       29.52R WCI  23
CRANE LAKE     CLOUDY    28  27  93 CALM      29.51R
ORR            CLOUDY    28  25  86 SW5       29.47R WCI  23
COOK           CLOUDY    30  27  86 SW7       29.50R WCI  23
WALKER         CLOUDY    29  27  91 SW7       29.53R WCI  22
$$
MNZ012-019>021-037-251300-
   Northeast Minnesota

CITY           SKY/WX    TMP DP  RH WIND       PRES   REMARKS
DULUTH         CLOUDY    31  27  85 SW12      29.53R WCI  22
6HR MIN TEMP:  31; 6HR MAX TEMP:  32; 6HR PCP: TRACE;

ELY            CLOUDY    30  27  86 SW6       29.48R WCI  24
HIBBING        CLOUDY    31  26  82 SW7       29.51R WCI  24
EVELETH        CLOUDY    32  30  93 SW8       29.51R WCI  25
DULUTH HARBOR  CLOUDY    34  30  86 SW10      29.58R WCI  26
TWO HARBORS    CLOUDY    34  28  80 SW9       29.51R WCI  26
SILVER BAY     CLOUDY    34  28  80 SW3       29.50R
GRAND MARAIS     N/A     32  29  88 W3        29.52R
G MARAIS ARPRT PTCLDY    25  21  86 CALM      29.48R
$$
MNZ029>031-032-039>041-046>048-054>057-064-251300-
   West Central Minnesota

CITY           SKY/WX    TMP DP  RH WIND       PRES   REMARKS
FERGUS FALLS   CLOUDY    28  28 100 SW6       29.60R WCI  22
WHEATON        CLOUDY    28  27  93 CALM      29.61R
MORRIS         CLOUDY    30  28  93 S3        29.58R
ALEXANDRIA     CLOUDY    28  26  92 SW7       29.58R WCI  21
ELBOW LAKE     CLOUDY    28  27  96 SW5       29.58R WCI  23
WADENA         CLOUDY    28  27  93 SW6       29.55R WCI  22
GLENWOOD       CLOUDY    28  27  93 SW7       29.58R WCI  21
APPLETON       CLOUDY    30  28  93 S3        29.59R
BENSON         CLOUDY    30  27  86 SW6       29.60R WCI  24
ORTONVILLE     LGT SNOW  30  27  86 CALM      29.59R
MADISON          N/A     34  30  86 CALM      29.59R
WILLMAR        FAIR      30  28  93 CALM      29.61R
$$
MNZ033>034-036-042>043-049>051-058-059-251300-
   Central Minnesota

CITY           SKY/WX    TMP DP  RH WIND       PRES   REMARKS
ST CLOUD       CLOUDY    32  26  78 SW9       29.60R WCI  24
6HR MIN TEMP:  32; 6HR MAX TEMP:  33;

SAUK CENTRE    CLOUDY    29  27  91 SW6       29.58R WCI  23
PAYNESVILLE    CLOUDY    27  26  95 SE8       29.61R WCI  19
AITKIN         CLOUDY    34  27  75 SW6       29.55R WCI  29
PINE RIVER     CLOUDY    28  27  93 SW5       29.60R WCI  23
BRAINERD       CLOUDY    29  26  89 SW9       29.58R WCI  20
STAPLES        CLOUDY    28  27  93 SW6       29.57R WCI  22
LONG PRAIRIE   CLOUDY    28  27  93 W8        29.58R WCI  20
LITTLE FALLS   CLOUDY    30  27  86 SW5       29.59R WCI  25
LITCHFIELD     CLOUDY    30  28  93 CALM      29.62R
BUFFALO        CLOUDY    30  27  88 S6        29.64R WCI  24
MAPLE LAKE     CLOUDY    31  29  92 S6        29.63R WCI  25
$$
MNZ037-044-045-052-053-251300-
   East Central Minnesota

CITY           SKY/WX    TMP DP  RH WIND       PRES   REMARKS
PRINCETON      CLOUDY    30  28  93 S9        29.61R WCI  22
MORA           CLOUDY    32  28  86 SW9       29.62R WCI  24
CAMBRIDGE      CLOUDY    32  25  74 S7        29.61R WCI  26
RUSH CITY      CLOUDY    31  27  88 SW7       29.62R WCI  24
MOOSE LAKE     CLOUDY    32  28  86 SW7       29.55R WCI  26
HINCKLEY       CLOUDY    32  30  93 SW8       29.60R WCI  25
CLOQUET        LGT SNOW  30  28  93 SW7       29.54R WCI  23
MCGREGOR       CLOUDY    32  28  86 SW7       29.56R WCI  26
$$
MNZ071>073-080-081-089-090-097-098-251300-
   Southwest Minnesota

CITY           SKY/WX    TMP DP  RH WIND       PRES   REMARKS
MONTEVIDEO     CLOUDY    30  28  93 SW3       29.60R
GRANITE FALLS  CLOUDY    30  28  91 SE3       29.61S
CANBY          CLOUDY    29  28  92 CALM      29.60R
MARSHALL       CLOUDY    28  25  86 SE7       29.58R WCI  21
REDWOOD FALLS  CLOUDY    30  27  88 S7        29.60S WCI  23
OLIVIA         CLOUDY    28  27  93 S6        29.60S WCI  22
PIPESTONE      CLOUDY    28  27  93 S7        29.54F WCI  21
WINDOM           N/A     30  27  86 S10       29.59R WCI  21
WORTHINGTON    CLOUDY    28 -18  12 S9        29.58S WCI  20
JACKSON        CLOUDY    30  28  93 S9        29.60S WCI  22
TRACY          CLOUDY    31  28  90 SW6       29.58R WCI  25
SLAYTON        CLOUDY    28  27  94 S9        29.58R WCI  19
$$
MNZ065>067-074>077-082>085-091>093-251300-
   South Central Minnesota

CITY           SKY/WX    TMP DP  RH WIND       PRES   REMARKS
MANKATO        CLOUDY    30  25  80 S13       29.64R WCI  20
NEW ULM        MOCLDY    28  28 100 S9        29.62R WCI  20
ST JAMES       MOCLDY    30  28  93 S13       29.64R FOG     WCI  20
FAIRMONT       CLOUDY    30  27  86 S13       29.63R WCI  20
GLENCOE        CLOUDY    31  29  94 S9        29.63R WCI  23
FARIBAULT      CLOUDY    28  27  93 S13       29.65R WCI  18
OWATONNA       CLOUDY    28  27  93 S7        29.65S WCI  21
ALBERT LEA     CLOUDY    28  28 100 S13G18    29.66R FOG     WCI  18
$$
MNZ078>079-086>088-094>096-251300-
   Southeast Minnesota

CITY           SKY/WX    TMP DP  RH WIND       PRES   REMARKS
ROCHESTER      CLOUDY    28  25  88 S13G23    29.68R WCI  17
6HR MIN TEMP:  27; 6HR MAX TEMP:  30; 6HR PCP: TRACE;

RED WING       CLOUDY    30  27  86 SW8       29.67R WCI  23
STANTON        CLOUDY    31  27  86 S8        29.64S WCI  23
DODGE CENTER   CLOUDY    28  27  93 S13       29.66R WCI  18
WINONA         CLOUDY    32  28  86 SW5       29.72R WCI  27
AUSTIN         CLOUDY    28  27  93 S12       29.67S FOG     WCI  18
PRESTON        CLOUDY    28  26  93 S10       29.70R WCI  18
$$
ABBREVIATIONS USED IN REMARKS
   TC - TEMPERATURES IN CELSIUS
  WCI - WIND CHILL INDEX
   HX - HEAT INDEX
  VSB - VISIBILITY
$$


USA.gov is the U.S. government's official web portal to all federal, state and local government web resources and services.